Starlink 5984

operational
NORAD ID: 56329 Int'l Des: 2023-058 Owner: SPXS Country: US Constellation: starlink
LEOCIRCULARRETROGRADESSO

关于 Starlink 5984

正在加载描述...

实时位置

正在加载3D地球...

即将过境

高度历史

Altitude vs Time

uPlot chart will show altitude changes over time

两行轨道根数

1 56329U 23058N 25304.79564782 .00004348 00000-0 30541-3 0 9990
2 56329 97.6026 304.1982 0002217 82.9772 277.1707 15.05641984138805
Epoch: Oct 31, 2025 • Age: 8 hours

当前状态

高度 551.8 km
速度 7.59 km/s
星下点 24.76°N, 147.36°W
发射日期 Apr 27, 2023
运行时间 2.5 years
类型 internet

技术详情

分类 Payload
质量 300.00 kg
干质量 260.00 kg
总质量 300.00 kg
长度 0.20 m
直径 2.80 m
跨度 9.00 m
形状 Box + pan
制造商 SPXS
平台类型 Starlink
阶段状态 In Orbit
所有者/国家 SPXS/US

大型星座

Loading constellations...